User: anonymous   Login
Location: Pine Mountain Observatory
(43.7910°N, 120.9377°W)
Time: 00:46:45
(UTC-07:00)
Language:

Cosmos 1076 Rocket - Orbit

View from above orbital plane
View from above orbital plane
View from above satellite
View from above satellite

Ground track
Ground track

The orbit data is extracted from the following two-line orbital elements,

1 11267U 79011B   16180.17481844  .00000099  00000-0  78683-5 0  9993
2 11267  82.5239 203.6800 0016099 331.9272  28.1076 14.88766576 22791
Epoch (UTC): 28 June 2016 04:11:44
Eccentricity: 0.0016099
inclination: 82.5239°
perigee height: 590 km
apogee height: 613 km
right ascension of ascending node: 203.6800°
argument of perigee: 331.9272°
revolutions per day: 14.88766576
mean anomaly at epoch: 28.1076°
orbit number at epoch: 2279

The dashed part of the orbit path shows where the satellite is in the earth's shadow,  

DLR